Погода в Никольском 1-ом

Россия / Воронежская область     50°35′16″N   41°08′57″E
темп.,
°C
ветер,
м/с
пор.,
м/с
влажн.,
%
обл.,
%
осадки,
мм/ч
давл.,
гПа
погр.,
м
10 августа, ср
ср1000:00+23св11335 0.0 101711
03:00+21в11365 0.0 101711
06:00+22юв224167 0.0 101719
09:00+29юв45306 0.0 1017524
12:00+33юв32205 0.0 10163449
15:00+34в331850 0.0 10143600
18:00+32в3521100 0.0 1014218
21:00+26ссв592991 0.0 1015143
11 августа, чт
чт1100:00+23всв484191 0.0 1015126
03:00+22всв49395 0.0 1015125
06:00+22в4104290 0.0 1016200
09:00+29в6831100 0.0 1016579
12:00+32всв772499 0.0 10161927
15:00+35св6620100 0.0 10143145
18:00+26св4840100 0.5 1015113
21:00+24св71547100 0.6 1016452
12 августа, пт
пт1200:00+23всв8165934 0.1 1017437
03:00+22всв61458100 0.1 1017354
06:00+21св51167100 0.0 1018323
09:00+25в51050100 0.0 1019629
12:00+30в683461 0.0 10181050
15:00+34вюв6725100 0.0 10172482
18:00+25ссв6953100 0.4 1017215
21:00+24ссв3556100 0.6 1017100
13 августа, сб
сб1300:00+23с2260100 0.0 101842
03:00+23ссв4660100 0.1 1019118
06:00+22св596097 0.1 1019242
09:00+23св5758100 0.1 1019293
12:00+29всв6836100 0.0 1018773
15:00+32в5730100 0.0 10171340
18:00+29св594049 0.1 1016497
21:00+26юв91549100 0.3 1018626
14 августа, вс
вс1400:00+27в51137100 0.0 1017286
03:00+26юв51037100 0.0 1017403
06:00+24в5123594 0.1 1017318
09:00+29в7122599 0.1 1015717
12:00+32в8102093 0.0 10151399
15:00+34в881830 0.0 10142555
18:00+32в782020 0.0 10141491
21:00+27всв7142640 0.0 1014410